Retour au catalogue

COSMOS 2082

ActifMilitaireLEO
NORAD 20624·PAYLOAD·🇷🇺 Russia

Lancé May 22, 1990 depuis Baikonur Cosmodrome

Loading…

Prochains Passages (prochaines 24 heures)

TLE

FraisSource: Space-Track

Époque: Sep 14, 2026, 05:27 UTC

1 20624U 90046A   26257.22761739  .00000083  00000-0  67476-4 0  9997
2 20624  71.0423 345.6771 0016950 275.4646  84.4543 14.14851900874292

Suivez COSMOS 2082 en temps réel avec AllMySat

Download on the App Store